Tracking 18852 objects as of 24-Nov-2017
HD Live streaming from Space Station
objects crossing your sky now

FENGYUN 1C DEB

Track FENGYUN 1C DEB now!
10-day predictions


NORAD ID: 38717
Int'l Code: 1999-025ETJ
Perigee: 831.7 km
Apogee: 934.7 km
Inclination: 99.0 °
Period: 102.5 minutes
Semi major axis: 7254 km
RCS: 0.0012 m2 (small)
Launch date: May 10, 1999
Source: People's Republic of China (PRC)
Launch site: Taiyaun Space Center, China (TSC)

Note: This is SATELLITE DEBRIS
aabbcc
Your satellite tracking list
Your tracking list is empty




NASA's NSSDC Master Catalog

Two Line Element Set (TLE):
1 38717U 99025ETJ 17324.08583601  .00000758  00000-0  48621-3 0  9993
2 38717  99.0077 267.8690 0071006 311.8535 109.7504 14.05144314362765
Source of the keplerian elements: AFSPC